www.pogodaiklimat.ru

Погода и климат >> Архив погоды >> Россия >> Саратовская область >> Маркс


ПОГОДА в Маркс

  • Прогноз погоды в Маркс
  • Монитор погоды в Маркс

АРХИВ ПОГОДЫ в Маркс

Время (UTC), дата Ветер
(напр.,м/с)
 
Видим.   Явления Облачность Т
(С)
Тd
(С)
f
(%)
Тe
(С)
Тes
(С)
Комфортность P
(гПа)
Po
(гПа)
Тmin
(С)
Tmax
(С)
R
(мм)
R24
(мм)
S
(см)
12 12.06 З 2 50 км 3/3 1000 м
[Cu med, cong]
+33.2 +11.3 26 +33 +41 жарко 1013.9 1010.4
15 12.06 СЗ 1 50 км 3/3 1000 м
[Cu med, cong]
+32.7 +12.1 29 +33 +35 жарко 1012.4 1008.9 +33.3
18 12.06 С 1 50 км 4/4 1000 м
[Sc diur, vesp]
+26.1 +16.0 54 +29 +29 жарко 1012.8 1009.2
21 12.06 СЗ 1 50 км 9/0
[Ac trans]
+23.1 +15.5 62 +27 +27 душно 1012.9 1009.3
00 13.06 СВ 3 50 км 1/0
[Ac trans]
+21.8 +13.1 58 +24 +24 комфорт 1013.6 1009.9
03 13.06 СВ 4 50 км 4/3 1000 м
[Sc Ac trans]
+20.0 +11.5 58 +22 +23 комфорт 1015.8 1012.1 +19.8
06 13.06 СВ 4
{10}
50 км 9/5 1000 м
[Sc Ac trans]
+18.7 +12.8 69 +19 +21 1018.3 1014.6 +18.4
09 13.06 В 4
{10}
50 км 1/0
[Ci fib]
+20.7 +8.1 44 +22 +33 комфорт 1019.6 1015.9
12 13.06 СВ 5
{10}
50 км ясно +22.5 +3.6 29 +22 +28 комфорт 1019.7 1016.0
15 13.06 СВ 4
{10}
50 км ясно +20.1 +2.0 30 +20 +22 1020.7 1016.9 +22.7
18 13.06 СВ 3 50 км ясно +16.5 +2.0 38 +16 +16 1022.0 1018.2
21 13.06 СВ 1 50 км ясно +13.6 +3.3 50 +14 +14 1022.8 1019.0
00 14.06 штиль 0 50 км ясно +9.6 +4.4 70 +9 +9 1023.5 1019.6
03 14.06 С 2 50 км 6/0
[Ci fib]
+13.9 +4.4 53 +14 +16 1024.0 1020.2 +9.4
06 14.06 СВ 1 50 км 9/0
[Ci fib]
+18.6 +4.2 38 +20 +31 1023.6 1019.8
09 14.06 В 2 50 км 3/0
[Ci fib]
+20.3 +2.1 30 +21 +37 комфорт 1021.5 1017.7
12 14.06 ЮЗ 2 50 км 8/0
[Ci fib]
+23.0 +4.3 30 +23 +32 комфорт 1019.0 1015.3
15 14.06 ЮЗ 2 50 км 8/0
[Ci fib]
+23.4 +3.7 28 +23 +25 комфорт 1016.4 1012.7 +23.6
18 14.06 ЮЗ 1 20 км 10/0
[Ac und]
+20.6 +8.1 45 +23 +23 комфорт 1014.5 1010.7
21 14.06 СВ 3 20 км 10/0
[Ac und]
+19.0 +8.5 51 +20 +20 1014.3 1010.6
00 15.06 В 2 20 км 10/4 600 м
[Cb cap Ac und]
+15.3 +9.2 67 +15 +15 1013.3 1009.6
03 15.06 В 2 20 км {ливн. осадки} 10/0
[Ac und]
+15.7 +9.1 65 +16 +16 1012.8 1009.1 +15.2 0.0
06 15.06 В 2 50 км {ливн. осадки} 10/0
[Ac und]
+16.5 +9.0 61 +17 +20 1013.6 1009.8
09 15.06 В 2 50 км 10/1 1000 м
[Cu med, cong Ac und]
+18.5 +9.8 57 +19 +24 1013.7 1010.0
12 15.06 С 2 50 км 10/4 600 м
[Cu Sc Ac und]
+19.4 +10.4 56 +21 +23 комфорт 1013.5 1009.7
15 15.06 штиль 0 50 км 9/3 1000 м
[Cu med, cong Ac trans]
+20.2 +10.1 52 +21 +22 комфорт 1012.7 1009.0 +20.2
18 15.06 штиль 0 50 км 9/0
[Ac trans Ci fib]
+16.3 +11.6 74 +16 +16 1012.7 1009.0
21 15.06 В 1 50 км 8/0
[Ci fib]
+14.8 +10.4 75 +15 +15 1012.6 1008.8
00 16.06 В 1 50 км 9/0
[Ac trans]
+14.2 +9.4 73 +15 +15 1012.2 1008.4
03 16.06 штиль 0 50 км 8/0
[Ac trans]
+16.2 +8.5 60 +16 +18 1012.3 1008.5 +13.8
06 16.06 ЮЗ 1 50 км 1/0
[Ac trans]
+21.6 +9.4 46 +23 +36 комфорт 1011.8 1008.1
09 16.06 СВ 1 50 км 9/8 1000 м
[Cu med, cong Ci fib]
+24.6 +10.8 42 +26 +29 жарко 1010.6 1007.0
12 16.06 З 2 50 км 9/4 1000 м
[Cu med, cong Ci sp]
+25.7 +10.6 39 +27 +32 жарко 1009.9 1006.3
15 16.06 СЗ 2 50 км 4/4 1000 м
[Cu med, cong]
+25.3 +10.6 40 +26 +28 жарко 1009.3 1005.7 +26.2
18 16.06 СВ 2 50 км 3/3 1000 м
[Sc diur, vesp]
+20.5 +10.0 51 +23 +23 комфорт 1010.9 1007.2
21 16.06 СВ 1 50 км ясно +17.8 +9.0 56 +19 +19 1011.5 1007.8
00 17.06 С 1 50 км ясно +14.8 +9.2 69 +15 +15 1012.5 1008.8
03 17.06 С 1 50 км ясно +17.6 +9.3 58 +19 +21 1013.7 1009.9 +13.3
06 17.06 СВ 2 50 км ясно +22.2 +8.4 41 +23 +35 комфорт 1014.3 1010.6
09 17.06 С 1 50 км 1/1 1000 м
[Cu hum]
+25.3 +7.6 32 +25 +44 комфорт 1013.9 1010.2
12 17.06 ЮЗ 2 50 км ясно +26.4 +8.0 31 +26 +37 жарко 1013.3 1009.7
15 17.06 З 2 50 км ясно +26.3 +8.5 32 +26 +28 жарко 1012.2 1008.6 +26.8
18 17.06 штиль 0 50 км 8/0
[Ac trans]
+20.3 +10.6 54 +22 +22 комфорт 1012.8 1009.1
21 17.06 З 1 50 км 5/0
[Ac trans]
+17.0 +13.4 79 +18 +18 1012.8 1009.1
00 18.06 штиль 0 20 км 9/4 1000 м
[Sc Ac lent Ci fib]
+17.0 +14.8 87 +17 +17 1012.6 1008.9
03 18.06 З 1 20 км 9/0
[Ac trans]
+18.3 +14.2 77 +20 +21 1012.9 1009.2 +15.9
06 18.06 СЗ 2 50 км 4/0
[Ac trans]
+24.4 +12.5 47 +26 +35 жарко 1013.0 1009.4
09 18.06 З 2 50 км 9/4 600 м
[Cu med, cong Ci fib]
+27.2 +10.2 34 +28 +36 жарко 1012.4 1008.8
12 18.06 З 2 50 км 8/8 600 м
[Cu med, cong Ci fib]
+29.2 +10.5 31 +29 +32 жарко 1011.0 1007.4
15 18.06 СВ 2 50 км 9/8 600 м
[Cb cap Ac trans]
+26.4 +11.6 40 +28 +28 жарко 1010.6 1007.0 +29.4
18 18.06 штиль 0 50 км 9/8 600 м
[Sc Ac trans]
+23.7 +11.9 48 +25 +25 комфорт 1011.1 1007.4
21 18.06 штиль 0 50 км 6/0
[Ac trans]
+20.8 +14.5 67 +23 +23 комфорт 1011.0 1007.3
00 19.06 штиль 0 50 км 4/0
[Ac trans]
+18.2 +14.2 77 +18 +18 1010.5 1006.8
03 19.06 С 1 50 км 6/1 1000 м
[Sc Ac trans]
+22.0 +14.2 61 +25 +27 комфорт 1010.6 1006.9 +18.1
06 19.06 СЗ 2 50 км 1/0
[Ac trans]
+25.5 +15.6 54 +29 +40 душно 1010.9 1007.3
09 19.06 С 2 50 км 4/4 1000 м
[Cu med, cong]
+28.3 +12.4 37 +29 +40 жарко 1010.8 1007.2

 

Местоположение метеостанции Маркс (Саратовская область, Россия): широта 51.70 долгота 46.73 высота над уровнем моря 29 м.

В архиве по умолчанию представлена погода в Маркс за последнюю неделю. Архивные данные за месяц целиком и за предыдущие месяцы, начиная с января 2011 года, Вы можете получить, выбрав интересующий диапазон дат из раскрывающегося списка и нажав кнопку "Ввод!".


*Определитесь, кто Вы:
робот инопланетянин человек

Внимание! Время в таблицах - всемирное. Для получения местного времени необходимо прибавить поправку, которая равна 4 ч.

Смотрите также архив погоды в соседних городах и на ближайших метеорологических станциях:

Погода в Саратове (Саратовская область, Россия) (50 км)
Погода в Саратове ЮВ (Саратовская область, Россия) (52 км)
Погода в Карабулаке (Саратовская область, Россия) (74 км)
Погода в Балаково (Саратовская область, Россия) (83 км)
Погода в Красном Куте (Саратовская область, Россия) (85 км)
Погода в Октябрьском Городке (Саратовская область, Россия) (89 км)
Погода в Петровске (Саратовская область, Россия) (112 км)
Погода в Ершове (Саратовская область, Россия) (115 км)
Погода в Сплавнухе (Саратовская область, Россия) (117 км)
Погода в Аткарске (Саратовская область, Россия) (118 км)

Пояснения к столбцам:

Ветер - указаны скорость ветра в м/с - средняя за 10 мин, порывы в срок и между сроками (в фигурных скобках) и направление, откуда дует ветер: С - северный, СВ - северо-восточный, В - восточный, ЮВ - юго-восточный, Ю - южный, ЮЗ - юго-западный, З - западный, СЗ - северо-западный.
Видимость - горизонтальная дальность видимости в метрах или километрах. При видимости от 1 до 10 км при отсутствии осадков обычно наблюдается дымка, при ухудшении видимости до 1 км и менее - туман. В сухую погоду видимость может ухудшаться дымом, пылью или мглою.
Явления - указаны атмосферные явления, наблюдавшиеся в срок или в последний час перед сроком; фигурными скобками обозначены явления, наблюдавшиеся между сроками (за 1-3 часа до срока); квадратными скобками обозначены град или гололедные отложения с указанием их диаметра в мм.
Облачность - указаны через наклонную черту общая и нижняя облачность в баллах и высота нижней границы облаков в метрах; квадратными скобками обозначены формы облаков: Ci - перистые, Cs - перисто-слоистые, Cc - перисто-кучевые, Ac - высококучевые, As - высокослоистые, Sc - слоисто-кучевые, Ns - слоисто-дождевые, Cu - кучевые, Cb - кучево-дождевые. Подробнее классификацию облаков см. в Атласе облаков (PDF).
T - Температура воздуха - температура, измеренная на высоте 2 м над землей.
Td - Температура точки росы - температура, при понижении до которой содержащийся в воздухе водяной пар достигнет насыщения.
f - Относительная влажность воздуха - влажноcть воздуха, измеренная на высоте 2 м над землей.
Te - Эффективная температура - температура, которую ощущает одетый по сезону человек в тени. Характеристика душности погоды. При расчете учитывается влияние влажности воздуха и скорости ветра на теплоощущения человека.
Tes - Эффективная температура на солнце - температура, которую ощущает человек, с поправкой на солнечный нагрев. Характеристика знойности погоды. Зависит от высоты солнца над горизонтом, облачности и скорости ветра. Ночью, в пасмурную погоду, а также при ветре 12 м/с и более поправка равна нулю.
P - Атмосферное давление - приведенное к уровню моря атмосферное давление.
Po - Атмосферное давление - измеренное на уровне метеостанции атмосферное давление.
Tmin - Минимальная температура - минимум температуры воздуха на высоте 2 м над землей.
Tmax - Максимальная температура - максимум температуры воздуха на высоте 2 м над землей.
R - Количество осадков - Количество выпавших осадков за период времени, мм. При наведении курсора мыши на число - период времени, за который выпало указанное количество осадков.
R24 - Количество осадков - Количество выпавших осадков за 24 часа, мм.
S - Снежный покров - Высота снежного покрова, см. При наведении курсора мыши на число - состояние снежного покрова и степень покрытия местности в баллах.